Météo par heure à Jubbada Hoose

Ce jour, 20 Juin, Dimanche

Heure Température Précipitation Vent Pression Humidité
00:00 +26°C° 0 mm 5 m/s 759 mmHg 72%
01:00 +25°C° 0 mm 4 m/s 759 mmHg 75%
02:00 +25°C° 0 mm 4 m/s 759 mmHg 78%
03:00 +25°C° 0 mm 3 m/s 758 mmHg 80%
04:00 +24°C° 0 mm 3 m/s 759 mmHg 81%
05:00 +24°C° 0 mm 3 m/s 759 mmHg 82%
06:00 +24°C° 0 mm 3 m/s 759 mmHg 82%
07:00 +26°C° 0 mm 4 m/s 760 mmHg 74%
08:00 +28°C° 0 mm 5 m/s 760 mmHg 66%
09:00 +29°C° 0 mm 6 m/s 760 mmHg 57%
10:00 +32°C° 0 mm 6 m/s 760 mmHg 49%
11:00 +34°C° 0 mm 7 m/s 759 mmHg 41%
12:00 +36°C° 0 mm 7 m/s 758 mmHg 33%
13:00 +36°C° 0 mm 7 m/s 758 mmHg 32%
14:00 +36°C° 0 mm 7 m/s 757 mmHg 32%
15:00 +35°C° 0 mm 7 m/s 756 mmHg 32%
16:00 +35°C° 0 mm 7 m/s 756 mmHg 34%
17:00 +34°C° 0 mm 7 m/s 756 mmHg 35%
18:00 +33°C° 0 mm 7 m/s 757 mmHg 36%
19:00 +32°C° 0 mm 6 m/s 757 mmHg 42%
20:00 +29°C° 0 mm 6 m/s 758 mmHg 47%
21:00 +28°C° 0 mm 6 m/s 759 mmHg 53%
22:00 +27°C° 0 mm 5 m/s 759 mmHg 60%
23:00 +26°C° 0 mm 5 m/s 759 mmHg 67%

Demain, 21 Juin, Lundi

Heure Température Précipitation Vent Pression Humidité
00:00 +25°C° 0 mm 4 m/s 759 mmHg 74%
01:00 +25°C° 0 mm 4 m/s 759 mmHg 78%
02:00 +25°C° 0 mm 4 m/s 758 mmHg 81%
03:00 +25°C° 0 mm 4 m/s 758 mmHg 84%
04:00 +23°C° 0 mm 4 m/s 758 mmHg 85%
05:00 +24°C° 0 mm 3 m/s 758 mmHg 87%
06:00 +24°C° 0 mm 3 m/s 758 mmHg 89%
07:00 +26°C° 0 mm 4 m/s 759 mmHg 80%
08:00 +27°C° 0 mm 5 m/s 759 mmHg 72%
09:00 +29°C° 0 mm 6 m/s 759 mmHg 63%
10:00 +32°C° 0 mm 6 m/s 759 mmHg 54%
11:00 +34°C° 0 mm 6 m/s 758 mmHg 45%
12:00 +36°C° 0 mm 6 m/s 758 mmHg 36%
13:00 +35°C° 0 mm 6 m/s 757 mmHg 37%
14:00 +35°C° 0 mm 6 m/s 757 mmHg 39%
15:00 +34°C° 0 mm 6 m/s 756 mmHg 41%
16:00 +33°C° 0 mm 6 m/s 756 mmHg 40%
17:00 +33°C° 0 mm 6 m/s 756 mmHg 40%
18:00 +32°C° 0 mm 6 m/s 757 mmHg 39%
19:00 +30°C° 0 mm 6 m/s 757 mmHg 48%
20:00 +29°C° 0 mm 6 m/s 758 mmHg 56%
21:00 +27°C° 0 mm 5 m/s 758 mmHg 65%
22:00 +26°C° 0 mm 5 m/s 758 mmHg 70%
23:00 +26°C° 0 mm 4 m/s 758 mmHg 76%

Après-demain, 22 Juin, Mardi

Heure Température Précipitation Vent Pression Humidité
00:00 +25°C° 0 mm 4 m/s 758 mmHg 81%
01:00 +23°C° 0 mm 4 m/s 758 mmHg 83%
02:00 +24°C° 0 mm 3 m/s 757 mmHg 86%
03:00 +24°C° 0 mm 3 m/s 757 mmHg 88%
04:00 +24°C° 0 mm 3 m/s 757 mmHg 89%
05:00 +22°C° 0 mm 3 m/s 758 mmHg 91%
06:00 +23°C° 0 mm 2 m/s 758 mmHg 92%
07:00 +25°C° 0 mm 3 m/s 758 mmHg 83%
08:00 +27°C° 0 mm 4 m/s 759 mmHg 74%
09:00 +29°C° 0 mm 5 m/s 759 mmHg 65%
10:00 +30°C° 0.1 mm 6 m/s 758 mmHg 58%
11:00 +33°C° 0.1 mm 6 m/s 758 mmHg 51%
12:00 +34°C° 0.1 mm 6 m/s 757 mmHg 44%
13:00 +34°C° 0.1 mm 5 m/s 757 mmHg 45%
14:00 +33°C° 0.1 mm 5 m/s 756 mmHg 45%
15:00 +33°C° 0.1 mm 5 m/s 756 mmHg 45%
16:00 +33°C° 0 mm 5 m/s 756 mmHg 47%
17:00 +32°C° 0 mm 5 m/s 756 mmHg 49%
18:00 +32°C° 0 mm 6 m/s 756 mmHg 51%
19:00 +29°C° 0 mm 6 m/s 757 mmHg 57%
20:00 +28°C° 0 mm 6 m/s 757 mmHg 63%
21:00 +27°C° 0 mm 5 m/s 758 mmHg 69%
22:00 +26°C° 0 mm 5 m/s 758 mmHg 74%
23:00 +26°C° 0 mm 4 m/s 758 mmHg 78%

23 Juin, Mercredi

Heure Température Précipitation Vent Pression Humidité
00:00 +25°C° 0 mm 4 m/s 758 mmHg 82%
01:00 +25°C° 0 mm 4 m/s 758 mmHg 84%
02:00 +25°C° 0 mm 4 m/s 757 mmHg 85%
03:00 +24°C° 0 mm 3 m/s 757 mmHg 87%
04:00 +24°C° 0 mm 3 m/s 758 mmHg 89%
05:00 +24°C° 0 mm 3 m/s 758 mmHg 91%
06:00 +23°C° 0 mm 2 m/s 758 mmHg 92%
07:00 +25°C° 0 mm 3 m/s 759 mmHg 81%
08:00 +27°C° 0 mm 4 m/s 759 mmHg 70%
09:00 +29°C° 0 mm 5 m/s 759 mmHg 59%
10:00 +32°C° 0 mm 5 m/s 759 mmHg 52%
11:00 +34°C° 0 mm 5 m/s 758 mmHg 44%
12:00 +36°C° 0 mm 5 m/s 758 mmHg 36%
13:00 +35°C° 0 mm 5 m/s 757 mmHg 38%
14:00 +35°C° 0 mm 5 m/s 756 mmHg 39%
15:00 +34°C° 0 mm 5 m/s 756 mmHg 40%
16:00 +33°C° 0 mm 5 m/s 756 mmHg 41%
17:00 +33°C° 0 mm 6 m/s 756 mmHg 43%
18:00 +32°C° 0 mm 6 m/s 756 mmHg 45%
19:00 +30°C° 0 mm 6 m/s 757 mmHg 54%
20:00 +28°C° 0 mm 6 m/s 758 mmHg 63%
21:00 +27°C° 0 mm 5 m/s 758 mmHg 72%
22:00 +26°C° 0 mm 5 m/s 758 mmHg 76%
23:00 +25°C° 0 mm 4 m/s 758 mmHg 79%

24 Juin, Jeudi

Heure Température Précipitation Vent Pression Humidité
00:00 +25°C° 0 mm 4 m/s 758 mmHg 83%
01:00 +24°C° 0 mm 3 m/s 758 mmHg 85%
02:00 +24°C° 0 mm 3 m/s 757 mmHg 87%
03:00 +24°C° 0 mm 3 m/s 757 mmHg 89%
04:00 +24°C° 0 mm 3 m/s 757 mmHg 90%
05:00 +23°C° 0 mm 2 m/s 758 mmHg 92%
06:00 +23°C° 0 mm 2 m/s 758 mmHg 93%
07:00 +25°C° 0 mm 3 m/s 759 mmHg 83%
08:00 +27°C° 0 mm 4 m/s 759 mmHg 72%
09:00 +29°C° 0 mm 5 m/s 759 mmHg 62%
10:00 +32°C° 0 mm 5 m/s 759 mmHg 52%
11:00 +34°C° 0 mm 5 m/s 758 mmHg 42%
12:00 +36°C° 0 mm 5 m/s 757 mmHg 33%
13:00 +36°C° 0 mm 6 m/s 757 mmHg 35%
14:00 +35°C° 0 mm 6 m/s 756 mmHg 36%
15:00 +35°C° 0 mm 6 m/s 756 mmHg 38%
16:00 +34°C° 0 mm 6 m/s 756 mmHg 42%
17:00 +33°C° 0 mm 6 m/s 756 mmHg 46%
18:00 +32°C° 0 mm 6 m/s 757 mmHg 49%
19:00 +30°C° 0 mm 6 m/s 757 mmHg 55%
20:00 +28°C° 0 mm 5 m/s 758 mmHg 61%
21:00 +27°C° 0 mm 5 m/s 758 mmHg 67%
22:00 +26°C° 0 mm 4 m/s 758 mmHg 72%
23:00 +26°C° 0 mm 4 m/s 758 mmHg 77%

25 Juin, Vendredi

Heure Température Précipitation Vent Pression Humidité
00:00 +25°C° 0 mm 4 m/s 758 mmHg 81%
01:00 +25°C° 0 mm 3 m/s 758 mmHg 84%
02:00 +24°C° 0 mm 3 m/s 757 mmHg 87%
03:00 +24°C° 0 mm 3 m/s 757 mmHg 89%
04:00 +24°C° 0 mm 2 m/s 757 mmHg 91%
05:00 +23°C° 0 mm 2 m/s 757 mmHg 93%
06:00 +23°C° 0 mm 2 m/s 757 mmHg 94%
07:00 +25°C° 0 mm 3 m/s 758 mmHg 84%
08:00 +27°C° 0 mm 4 m/s 758 mmHg 74%
09:00 +29°C° 0 mm 5 m/s 759 mmHg 65%
10:00 +30°C° 0.1 mm 5 m/s 758 mmHg 59%
11:00 +32°C° 0.1 mm 5 m/s 758 mmHg 54%
12:00 +33°C° 0.1 mm 5 m/s 757 mmHg 48%
13:00 +34°C° 0 mm 5 m/s 757 mmHg 47%
14:00 +34°C° 0 mm 5 m/s 756 mmHg 45%
15:00 +34°C° 0 mm 5 m/s 755 mmHg 43%
16:00 +33°C° 0 mm 5 m/s 755 mmHg 46%
17:00 +33°C° 0 mm 5 m/s 755 mmHg 48%
18:00 +32°C° 0 mm 5 m/s 755 mmHg 50%
19:00 +30°C° 0 mm 5 m/s 756 mmHg 55%
20:00 +29°C° 0 mm 5 m/s 756 mmHg 61%
21:00 +27°C° 0 mm 5 m/s 757 mmHg 66%
22:00 +27°C° 0 mm 5 m/s 757 mmHg 70%
23:00 +26°C° 0 mm 5 m/s 757 mmHg 74%
Voir plus

Nous avons besoin de votre consentement

Meteoprog et ses fournisseurs de services peuvent stocker et accéder à des données personnelles telles que des cookies, des identifiants d'appareils ou d'autres technologies similaires sur votre appareil et traiter ces données pour personnaliser le contenu et les publicités, ainsi que pour fournir des fonctionnalités de médias sociaux et analyser le trafic.

  • Stocker et/ou accéder à des informations sur votre appareil

    Des cookies, des identifiants d'appareils ou d'autres informations peuvent être stockés ou accessibles sur votre appareil aux fins indiquées ci-dessus.

  • Annonces et contenus personnalisés, mesure des annonces et des contenus, connaissance de l'audience et développement de produits

    Les annonces et le contenu peuvent être personnalisés en fonction d'un profil. D'autres données peuvent être ajoutées pour mieux personnaliser les annonces et le contenu. Les performances des publicités et du contenu peuvent être mesurées. Il est possible d'obtenir des informations sur le public qui a vu les publicités et le contenu. Ces données peuvent être utilisées pour développer ou améliorer l'expérience de l'utilisateur, les systèmes et les logiciels.

En cliquant sur "J'accepte", vous autorisez l'utilisation de cookies, des identifiants d'appareils, des balises web ou d'autres technologies similaires. Vos paramètres peuvent être modifiés dans le navigateur de votre appareil.

Dans certains cas, des intérêts légitimes peuvent être invoqués plutôt qu'un consentement. Vous pouvez en savoir plus à ce sujet dans notre Politique de confidentialité et de cookies.